• Em Portugal
  • Lista de países
  • Para 7 dias
  • Temperatura da água
  • Mapas de satélite
  • Mapa do tempo
  • Widgets de tempo
  • user-avatar
    Iniciar Sessão

    Previsão horária em Fier

    Hoje, 23 Maio, Quarta-feira

    Tempo Temperatura Precipitação Vento Pressão Humidade
    00:00 +21°C° 0 mm 2 m/s 760 mmHg 71%
    01:00 +21°C° 0 mm 2 m/s 760 mmHg 71%
    02:00 +21°C° 0 mm 2 m/s 760 mmHg 71%
    03:00 +20°C° 0 mm 2 m/s 760 mmHg 71%
    04:00 +20°C° 0 mm 2 m/s 760 mmHg 70%
    05:00 +23°C° 0,1 mm 2 m/s 760 mmHg 68%
    06:00 +24°C° 0,1 mm 2 m/s 760 mmHg 66%
    07:00 +26°C° 0,1 mm 1 m/s 760 mmHg 63%
    08:00 +27°C° 0,1 mm 1 m/s 760 mmHg 59%
    09:00 +28°C° 0,1 mm 1 m/s 760 mmHg 54%
    10:00 +29°C° 0,1 mm 1 m/s 760 mmHg 50%
    11:00 +29°C° 0,5 mm 2 m/s 760 mmHg 55%
    12:00 +28°C° 0,5 mm 2 m/s 760 mmHg 60%
    13:00 +27°C° 0,5 mm 2 m/s 759 mmHg 66%
    14:00 +27°C° 1 mm 2 m/s 759 mmHg 66%
    15:00 +26°C° 1 mm 3 m/s 759 mmHg 66%
    16:00 +26°C° 1 mm 3 m/s 759 mmHg 66%
    17:00 +25°C° 0,6 mm 3 m/s 759 mmHg 70%
    18:00 +24°C° 0,6 mm 3 m/s 759 mmHg 74%
    19:00 +22°C° 0,6 mm 3 m/s 759 mmHg 79%
    20:00 +21°C° 0,4 mm 3 m/s 759 mmHg 80%
    21:00 +21°C° 0,4 mm 3 m/s 759 mmHg 81%
    22:00 +21°C° 0,4 mm 3 m/s 759 mmHg 82%
    23:00 +20°C° 0,2 mm 2 m/s 759 mmHg 82%

    Amanhã, 24 Maio, Quinta-feira

    Tempo Temperatura Precipitação Vento Pressão Humidade
    00:00 +20°C° 0,2 mm 2 m/s 759 mmHg 83%
    01:00 +20°C° 0,2 mm 1 m/s 759 mmHg 83%
    02:00 +20°C° 0 mm 1 m/s 759 mmHg 84%
    03:00 +20°C° 0 mm 1 m/s 759 mmHg 84%
    04:00 +19°C° 0 mm 2 m/s 759 mmHg 85%
    05:00 +21°C° 0 mm 1 m/s 759 mmHg 80%
    06:00 +22°C° 0 mm 1 m/s 759 mmHg 76%
    07:00 +24°C° 0 mm 1 m/s 760 mmHg 72%
    08:00 +25°C° 0 mm 2 m/s 760 mmHg 68%
    09:00 +26°C° 0 mm 3 m/s 760 mmHg 64%
    10:00 +27°C° 0 mm 3 m/s 760 mmHg 61%
    11:00 +27°C° 0,1 mm 4 m/s 759 mmHg 61%
    12:00 +28°C° 0,1 mm 4 m/s 759 mmHg 61%
    13:00 +28°C° 0,1 mm 5 m/s 759 mmHg 61%
    14:00 +28°C° 0,2 mm 5 m/s 759 mmHg 64%
    15:00 +27°C° 0,2 mm 5 m/s 758 mmHg 67%
    16:00 +26°C° 0,2 mm 5 m/s 758 mmHg 70%
    17:00 +25°C° 0,1 mm 4 m/s 758 mmHg 76%
    18:00 +23°C° 0,1 mm 4 m/s 758 mmHg 82%
    19:00 +21°C° 0,1 mm 3 m/s 759 mmHg 88%
    20:00 +21°C° 0,1 mm 3 m/s 759 mmHg 89%
    21:00 +20°C° 0,1 mm 2 m/s 759 mmHg 90%
    22:00 +20°C° 0,1 mm 2 m/s 759 mmHg 90%
    23:00 +20°C° 0 mm 2 m/s 759 mmHg 90%

    Depois de amanhã, 25 Maio, Sexta-feira

    Tempo Temperatura Precipitação Vento Pressão Humidade
    00:00 +19°C° 0 mm 2 m/s 759 mmHg 89%
    01:00 +19°C° 0 mm 2 m/s 759 mmHg 88%
    02:00 +19°C° 0 mm 2 m/s 759 mmHg 87%
    03:00 +19°C° 0 mm 2 m/s 759 mmHg 86%
    04:00 +18°C° 0 mm 2 m/s 758 mmHg 85%
    05:00 +20°C° 0 mm 2 m/s 759 mmHg 79%
    06:00 +23°C° 0 mm 2 m/s 759 mmHg 74%
    07:00 +25°C° 0 mm 2 m/s 759 mmHg 68%
    08:00 +26°C° 0 mm 2 m/s 759 mmHg 62%
    09:00 +28°C° 0 mm 2 m/s 759 mmHg 56%
    10:00 +29°C° 0 mm 3 m/s 759 mmHg 50%
    11:00 +30°C° 0,1 mm 3 m/s 759 mmHg 50%
    12:00 +30°C° 0,1 mm 4 m/s 758 mmHg 50%
    13:00 +30°C° 0,1 mm 5 m/s 758 mmHg 49%
    14:00 +30°C° 0,4 mm 5 m/s 758 mmHg 53%
    15:00 +29°C° 0,4 mm 4 m/s 758 mmHg 56%
    16:00 +29°C° 0,4 mm 4 m/s 758 mmHg 59%
    17:00 +27°C° 0,1 mm 4 m/s 758 mmHg 65%
    18:00 +25°C° 0,1 mm 3 m/s 759 mmHg 71%
    19:00 +24°C° 0,1 mm 3 m/s 759 mmHg 78%
    20:00 +22°C° 0 mm 3 m/s 759 mmHg 78%
    21:00 +23°C° 0 mm 2 m/s 760 mmHg 78%
    22:00 +21°C° 0 mm 2 m/s 760 mmHg 79%
    23:00 +21°C° 0 mm 2 m/s 760 mmHg 78%

    26 Maio, Sábado

    Tempo Temperatura Precipitação Vento Pressão Humidade
    00:00 +21°C° 0 mm 2 m/s 760 mmHg 77%
    01:00 +20°C° 0 mm 2 m/s 760 mmHg 76%
    02:00 +20°C° 0 mm 2 m/s 760 mmHg 76%
    03:00 +20°C° 0 mm 2 m/s 760 mmHg 75%
    04:00 +20°C° 0 mm 2 m/s 760 mmHg 75%
    05:00 +21°C° 0 mm 2 m/s 760 mmHg 71%
    06:00 +24°C° 0 mm 2 m/s 760 mmHg 68%
    07:00 +26°C° 0 mm 2 m/s 761 mmHg 64%
    08:00 +27°C° 0 mm 2 m/s 761 mmHg 57%
    09:00 +29°C° 0 mm 2 m/s 761 mmHg 50%
    10:00 +30°C° 0 mm 3 m/s 761 mmHg 43%
    11:00 +31°C° 0 mm 3 m/s 761 mmHg 41%
    12:00 +32°C° 0 mm 4 m/s 760 mmHg 39%
    13:00 +33°C° 0 mm 4 m/s 760 mmHg 37%
    14:00 +33°C° 0 mm 4 m/s 760 mmHg 39%
    15:00 +33°C° 0 mm 5 m/s 760 mmHg 41%
    16:00 +32°C° 0 mm 5 m/s 760 mmHg 42%
    17:00 +29°C° 0 mm 5 m/s 760 mmHg 51%
    18:00 +27°C° 0 mm 4 m/s 760 mmHg 59%
    19:00 +25°C° 0 mm 4 m/s 760 mmHg 68%
    20:00 +23°C° 0 mm 4 m/s 761 mmHg 68%
    21:00 +24°C° 0 mm 3 m/s 761 mmHg 69%
    22:00 +22°C° 0 mm 3 m/s 761 mmHg 70%
    23:00 +22°C° 0 mm 3 m/s 761 mmHg 70%

    27 Maio, Domingo

    Tempo Temperatura Precipitação Vento Pressão Humidade
    00:00 +22°C° 0 mm 3 m/s 761 mmHg 70%
    01:00 +21°C° 0 mm 3 m/s 761 mmHg 70%
    02:00 +21°C° 0 mm 3 m/s 761 mmHg 70%
    03:00 +21°C° 0 mm 3 m/s 761 mmHg 71%
    04:00 +21°C° 0 mm 3 m/s 761 mmHg 72%
    05:00 +22°C° 0 mm 3 m/s 761 mmHg 70%
    06:00 +25°C° 0 mm 2 m/s 761 mmHg 68%
    07:00 +27°C° 0 mm 2 m/s 761 mmHg 66%
    08:00 +28°C° 0 mm 2 m/s 761 mmHg 60%
    09:00 +29°C° 0 mm 2 m/s 761 mmHg 54%
    10:00 +31°C° 0 mm 2 m/s 761 mmHg 48%
    11:00 +31°C° 0,1 mm 3 m/s 761 mmHg 47%
    12:00 +33°C° 0,1 mm 3 m/s 761 mmHg 47%
    13:00 +33°C° 0,1 mm 4 m/s 761 mmHg 46%
    14:00 +33°C° 0,1 mm 4 m/s 761 mmHg 48%
    15:00 +32°C° 0,1 mm 4 m/s 760 mmHg 50%
    16:00 +32°C° 0,1 mm 4 m/s 760 mmHg 51%
    17:00 +29°C° 0 mm 3 m/s 760 mmHg 58%
    18:00 +27°C° 0 mm 3 m/s 761 mmHg 65%
    19:00 +26°C° 0 mm 2 m/s 761 mmHg 72%
    20:00 +25°C° 0 mm 2 m/s 761 mmHg 73%
    21:00 +24°C° 0 mm 2 m/s 761 mmHg 75%
    22:00 +23°C° 0 mm 2 m/s 762 mmHg 76%
    23:00 +23°C° 0 mm 2 m/s 761 mmHg 76%

    28 Maio, Segunda-feira

    Tempo Temperatura Precipitação Vento Pressão Humidade
    00:00 +23°C° 0 mm 1 m/s 761 mmHg 75%
    01:00 +23°C° 0 mm 1 m/s 761 mmHg 75%
    02:00 +22°C° 0 mm 1 m/s 761 mmHg 75%
    03:00 +22°C° 0 mm 1 m/s 761 mmHg 74%
    04:00 +22°C° 0 mm 1 m/s 761 mmHg 74%
    05:00 +23°C° 0 mm 1 m/s 761 mmHg 70%
    06:00 +25°C° 0 mm 1 m/s 761 mmHg 67%
    07:00 +26°C° 0 mm 1 m/s 761 mmHg 64%
    08:00 +28°C° 0 mm 1 m/s 761 mmHg 59%
    09:00 +29°C° 0 mm 1 m/s 761 mmHg 54%
    10:00 +30°C° 0 mm 1 m/s 761 mmHg 50%
    11:00 +31°C° 0 mm 2 m/s 761 mmHg 49%
    12:00 +31°C° 0 mm 3 m/s 761 mmHg 49%
    13:00 +33°C° 0 mm 4 m/s 760 mmHg 48%
    14:00 +31°C° 0,2 mm 3 m/s 760 mmHg 52%
    15:00 +30°C° 0,2 mm 3 m/s 760 mmHg 57%
    16:00 +29°C° 0,2 mm 2 m/s 759 mmHg 61%
    17:00 +28°C° 0,1 mm 2 m/s 760 mmHg 65%
    18:00 +26°C° 0,1 mm 1 m/s 760 mmHg 70%
    19:00 +25°C° 0,1 mm 1 m/s 760 mmHg 75%
    20:00 +24°C° 0 mm 1 m/s 760 mmHg 75%
    21:00 +24°C° 0 mm 1 m/s 760 mmHg 75%
    22:00 +23°C° 0 mm 1 m/s 760 mmHg 76%
    23:00 +23°C° 0 mm 1 m/s 760 mmHg 75%
    Mostrar mais